Weather History for MWCR - November, 2011

Change the Weather History Date:

Thursday, November 24, 2011

  Actual Average Record
Temperature  
Mean Temperature 81 °F -  
Max Temperature 84 °F 82 °F 87 °F (2007)
Min Temperature 78 °F 74 °F 71 °F (2012)
Cooling Degree Days 16    
Growing Degree Days 31 (Base 50)    
Moisture  
Dew Point 74 °F    
Average Humidity 77    
Maximum Humidity 83    
Minimum Humidity 71    
Precipitation  
Precipitation 0.00 in - - ()
Sea Level Pressure  
Sea Level Pressure 30.02 in    
Wind  
Wind Speed 11 mph ()    
Max Wind Speed 15 mph    
Max Gust Speed -    
Visibility 6.2 miles    
Events      
Averages and records for this station are not official NWS values.
T = Trace of Precipitation, MM = Missing Value Source: Averaged Metar Reports

Daily Weather History Graph

Daily Weather History Graph

Search for Another Location

Airport or City:

Trip Planner

Search our weather history database for the weather conditions in past years. The results will help you decide how hot, cold, wet, or windy it might be!

Date:

Astronomy

Nov. 24, 2011 Rise Set
Actual Time 6:38 AM EST 5:45 PM EST
Civil Twilight 6:14 AM EST 6:09 PM EST
Nautical Twilight 5:48 AM EST 6:35 PM EST
Astronomical Twilight 5:21 AM EST 7:02 PM EST
Moon 5:52 AM EST (11/24) 5:19 PM EST (11/24)
Length of Visible Light 11h 54m
Length of Day
11h 07m
Waning Crescent, 0% of the Moon is Illuminated
Nov 24
Waning Crescent
Nov 25
New
Dec 2
First Quarter
Dec 10
Full
Dec 17
Last Quarter

Hourly Weather History & Observations

Time (EST) Temp. Heat Index Dew Point Humidity Pressure Visibility Wind Dir Wind Speed Gust Speed Precip Events Conditions
6:00 AM 78.8 °F - 73.4 °F 83% 30.01 in 6.2 mi NNE 10.4 mph - N/A   Scattered Clouds
7:00 AM 80 °F - 72 °F 71% 30.02 in 6 mi NNE 11.5 mph - -   Partly Cloudy
7:00 AM 80.6 °F 84.6 °F 71.6 °F 74% 30.01 in 6.2 mi NNE 11.5 mph - N/A   Scattered Clouds
8:00 AM 80.6 °F 84.6 °F 71.6 °F 74% 30.04 in 6.2 mi NE 12.7 mph - N/A   Partly Cloudy
9:00 AM 82.4 °F 88.2 °F 73.4 °F 74% 30.04 in 6.2 mi NE 11.5 mph - N/A   Partly Cloudy
10:00 AM 82.4 °F 88.2 °F 73.4 °F 74% 30.06 in 6.2 mi NE 11.5 mph - N/A   Scattered Clouds
11:00 AM 82.4 °F 89.5 °F 75.2 °F 79% 30.06 in 6.2 mi NE 10.4 mph - N/A   Mostly Cloudy
12:00 PM 82.4 °F 89.5 °F 75.2 °F 79% 30.04 in 6.2 mi NE 12.7 mph - N/A   Scattered Clouds
1:00 PM 82 °F - 75 °F 74% 30.02 in 6 mi NNE 13.8 mph - -   Partly Cloudy
1:00 PM 82.4 °F 89.5 °F 75.2 °F 79% 30.01 in 6.2 mi NNE 15.0 mph - N/A   Scattered Clouds
2:00 PM 82.4 °F 89.5 °F 75.2 °F 79% 30.01 in 6.2 mi NE 13.8 mph - N/A   Scattered Clouds
3:00 PM 82.4 °F 89.5 °F 75.2 °F 79% 29.98 in 6.2 mi NE 15.0 mph - N/A   Scattered Clouds
4:00 PM 82.4 °F 88.2 °F 73.4 °F 74% 29.98 in 6.2 mi NE 12.7 mph - N/A   Partly Cloudy
5:00 PM 80.6 °F 85.4 °F 73.4 °F 79% 29.98 in 6.2 mi NE 12.7 mph - N/A   Partly Cloudy
6:00 PM 80.6 °F 85.4 °F 73.4 °F 79% 30.01 in 6.2 mi NE 12.7 mph - N/A   Partly Cloudy
7:00 PM 80 °F - 72 °F 71% 30.02 in 6 mi ENE 12.7 mph - -   Scattered Clouds
7:00 PM 80.6 °F 84.6 °F 71.6 °F 74% 30.01 in 6.2 mi ENE 12.7 mph - N/A   Partly Cloudy
8:00 PM 80.6 °F 85.4 °F 73.4 °F 79% 30.04 in 6.2 mi ENE 11.5 mph - N/A   Partly Cloudy
9:00 PM 80.6 °F 85.4 °F 73.4 °F 79% 30.04 in 6.2 mi NE 11.5 mph - N/A   Partly Cloudy
10:00 PM 80.6 °F 85.4 °F 73.4 °F 79% 30.04 in 6.2 mi ENE 12.7 mph - N/A   Partly Cloudy